,,�O�C���x [��],����1,���ԉ��x [��],����2,���Ԏ��x [��],����3,�Q�����x [��],����4,���� [��],����5
2002/11/1,0:00,,1 ,21.6,0 ,58,0 ,20.4,0 ,18.4,0 
2002/11/1,0:15,,1 ,21.4,0 ,58.6,0 ,20.2,0 ,18.5,0 
2002/11/1,0:30,,1 ,21.3,0 ,59.1,0 ,20.1,0 ,18.5,0 
2002/11/1,0:45,,1 ,21.2,0 ,59.7,0 ,20,0 ,18.4,0 
2002/11/1,1:00,,1 ,21.2,0 ,59.6,0 ,19.9,0 ,18.4,0 
2002/11/1,1:15,,1 ,21,0 ,59.7,0 ,19.8,0 ,18.3,0 
2002/11/1,1:30,,1 ,21,0 ,59.6,0 ,19.8,0 ,18.3,0 
2002/11/1,1:45,,1 ,20.9,0 ,59.8,0 ,19.7,0 ,18.2,0 
2002/11/1,2:00,,1 ,20.8,0 ,60,0 ,19.6,0 ,18.2,0 
2002/11/1,2:15,,1 ,20.8,0 ,59.9,0 ,19.5,0 ,18.2,0 
2002/11/1,2:30,,1 ,20.7,0 ,60,0 ,19.5,0 ,18.2,0 
2002/11/1,2:45,,1 ,20.7,0 ,60,0 ,19.4,0 ,18.1,0 
2002/11/1,3:00,,1 ,20.7,0 ,60.4,0 ,19.4,0 ,18.1,0 
2002/11/1,3:15,,1 ,20.6,0 ,60.1,0 ,19.3,0 ,18.1,0 
2002/11/1,3:30,,1 ,20.6,0 ,59.9,0 ,19.3,0 ,18,0 
2002/11/1,3:45,,1 ,20.6,0 ,59.9,0 ,19.2,0 ,18,0 
2002/11/1,4:00,,1 ,20.6,0 ,59.9,0 ,19.2,0 ,18,0 
2002/11/1,4:15,,1 ,20.6,0 ,59.9,0 ,19.2,0 ,18,0 
2002/11/1,4:30,,1 ,20.6,0 ,59.9,0 ,19.1,0 ,17.9,0 
2002/11/1,4:45,,1 ,20.7,0 ,59.5,0 ,19.1,0 ,18,0 
2002/11/1,5:00,,1 ,20.7,0 ,59.6,0 ,19.1,0 ,18.1,0 
2002/11/1,5:15,,1 ,20.7,0 ,59.4,0 ,19,0 ,18.1,0 
2002/11/1,5:30,,1 ,20.7,0 ,59.5,0 ,19,0 ,18,0 
2002/11/1,5:45,,1 ,20.7,0 ,60.2,0 ,19,0 ,18,0 
2002/11/1,6:00,,1 ,20.7,0 ,60.1,0 ,19,0 ,17.9,0 
2002/11/1,6:15,,1 ,20.7,0 ,60,0 ,18.9,0 ,17.9,0 
2002/11/1,6:30,,1 ,20.7,0 ,59.6,0 ,18.9,0 ,17.8,0 
2002/11/1,6:45,,1 ,20.6,0 ,59.7,0 ,18.9,0 ,17.8,0 
2002/11/1,7:00,,1 ,20.4,0 ,60.8,0 ,19,0 ,17.8,0 
2002/11/1,7:15,,1 ,20.4,0 ,60.8,0 ,19,0 ,18,0 
2002/11/1,7:30,,1 ,20.4,0 ,60.8,0 ,19.1,0 ,17.9,0 
2002/11/1,7:45,,1 ,20.3,0 ,60.9,0 ,19.1,0 ,17.9,0 
2002/11/1,8:00,,1 ,20.2,0 ,61,0 ,19.1,0 ,17.9,0 
2002/11/1,8:15,,1 ,20.2,0 ,61,0 ,19.1,0 ,17.9,0 
2002/11/1,8:30,,1 ,20.2,0 ,60.8,0 ,19.1,0 ,17.8,0 
2002/11/1,8:45,,1 ,20.1,0 ,60.8,0 ,19.1,0 ,17.8,0 
2002/11/1,9:00,,1 ,20.2,0 ,60.7,0 ,19.1,0 ,17.9,0 
2002/11/1,9:15,,1 ,20.1,0 ,60.6,0 ,19.1,0 ,17.9,0 
2002/11/1,9:30,,1 ,20.2,0 ,60.6,0 ,19.1,0 ,17.9,0 
2002/11/1,9:45,,1 ,20.7,0 ,58.9,0 ,19.1,0 ,17.9,0 
2002/11/1,10:00,,1 ,20.8,0 ,58.8,0 ,19.2,0 ,17.8,0 
2002/11/1,10:15,,1 ,20.9,0 ,58.6,0 ,19.3,0 ,17.8,0 
2002/11/1,10:30,,1 ,20.5,0 ,59.8,0 ,19.3,0 ,17.7,0 
2002/11/1,10:45,,1 ,20.4,0 ,60.3,0 ,19.3,0 ,17.7,0 
2002/11/1,11:00,,1 ,20.4,0 ,60.3,0 ,19.2,0 ,17.7,0 
2002/11/1,11:15,,1 ,20.4,0 ,59.8,0 ,19.2,0 ,17.6,0 
2002/11/1,11:30,,1 ,20.4,0 ,59.7,0 ,19.2,0 ,17.6,0 
2002/11/1,11:45,,1 ,20.3,0 ,60.9,0 ,19.2,0 ,17.7,0 
2002/11/1,12:00,,1 ,20.3,0 ,60.6,0 ,19.2,0 ,17.8,0 
2002/11/1,12:15,,1 ,20.8,0 ,59.7,0 ,19.2,0 ,17.8,0 
2002/11/1,12:30,,1 ,20.6,0 ,60.5,0 ,19.3,0 ,17.9,0 
2002/11/1,12:45,,1 ,20.8,0 ,59.9,0 ,19.3,0 ,17.9,0 
2002/11/1,13:00,,1 ,20.9,0 ,60,0 ,19.4,0 ,18,0 
2002/11/1,13:15,,1 ,20.9,0 ,60.7,0 ,19.4,0 ,18,0 
2002/11/1,13:30,,1 ,20.8,0 ,60.5,0 ,19.4,0 ,18.1,0 
2002/11/1,13:45,,1 ,20.8,0 ,60.8,0 ,19.4,0 ,18.1,0 
2002/11/1,14:00,,1 ,20.8,0 ,60.5,0 ,19.4,0 ,18.1,0 
2002/11/1,14:15,,1 ,20.7,0 ,61,0 ,19.4,0 ,18.1,0 
2002/11/1,14:30,,1 ,20.6,0 ,61.1,0 ,19.4,0 ,18.1,0 
2002/11/1,14:45,,1 ,20.6,0 ,61.2,0 ,19.4,0 ,18.2,0 
2002/11/1,15:00,,1 ,20.7,0 ,61.5,0 ,19.4,0 ,18.2,0 
2002/11/1,15:15,,1 ,20.8,0 ,61.7,0 ,19.4,0 ,18.2,0 
2002/11/1,15:30,,1 ,20.8,0 ,61.2,0 ,19.4,0 ,18.2,0 
2002/11/1,15:45,,1 ,20.6,0 ,61.6,0 ,19.4,0 ,18.2,0 
2002/11/1,16:00,,1 ,20.6,0 ,61.9,0 ,19.4,0 ,18.2,0 
2002/11/1,16:15,,1 ,20.6,0 ,61.8,0 ,19.4,0 ,18.2,0 
2002/11/1,16:30,,1 ,20.6,0 ,62,0 ,19.4,0 ,18.2,0 
2002/11/1,16:45,,1 ,20.6,0 ,61.8,0 ,19.4,0 ,18.2,0 
2002/11/1,17:00,,1 ,20.6,0 ,61.7,0 ,19.3,0 ,18.2,0 
2002/11/1,17:15,,1 ,20.5,0 ,61.9,0 ,19.3,0 ,18.1,0 
2002/11/1,17:30,,1 ,20.5,0 ,62.1,0 ,19.3,0 ,18.1,0 
2002/11/1,17:45,,1 ,20.6,0 ,62.3,0 ,19.3,0 ,18.1,0 
2002/11/1,18:00,,1 ,20.6,0 ,63.1,0 ,19.3,0 ,18.1,0 
2002/11/1,18:15,,1 ,20.6,0 ,62.6,0 ,19.3,0 ,18.1,0 
2002/11/1,18:30,,1 ,20.6,0 ,62.7,0 ,19.3,0 ,18,0 
2002/11/1,18:45,,1 ,20.6,0 ,62.5,0 ,19.3,0 ,18.1,0 
2002/11/1,19:00,,1 ,20.6,0 ,62.6,0 ,19.2,0 ,18,0 
2002/11/1,19:15,,1 ,20.5,0 ,62.6,0 ,19.2,0 ,18,0 
2002/11/1,19:30,,1 ,20.6,0 ,61.8,0 ,19.2,0 ,18,0 
2002/11/1,19:45,,1 ,20.5,0 ,62,0 ,19.2,0 ,17.9,0 
2002/11/1,20:00,,1 ,20.5,0 ,61.9,0 ,19.2,0 ,17.9,0 
2002/11/1,20:15,,1 ,20.5,0 ,61.7,0 ,19.2,0 ,17.9,0 
2002/11/1,20:30,,1 ,20.6,0 ,61.3,0 ,19.2,0 ,17.9,0 
2002/11/1,20:45,,1 ,20.7,0 ,60.7,0 ,19.2,0 ,17.9,0 
2002/11/1,21:00,,1 ,21.1,0 ,60.6,0 ,19.3,0 ,17.9,0 
2002/11/1,21:15,,1 ,21.3,0 ,60.8,0 ,19.3,0 ,17.9,0 
2002/11/1,21:30,,1 ,21.3,0 ,61,0 ,19.4,0 ,17.9,0 
2002/11/1,21:45,,1 ,21.4,0 ,60.4,0 ,19.4,0 ,17.9,0 
2002/11/1,22:00,,1 ,21.3,0 ,60.5,0 ,19.5,0 ,17.9,0 
2002/11/1,22:15,,1 ,21.3,0 ,60.4,0 ,19.5,0 ,17.9,0 
2002/11/1,22:30,,1 ,21.2,0 ,60.1,0 ,19.5,0 ,17.9,0 
2002/11/1,22:45,,1 ,21.1,0 ,60.7,0 ,19.5,0 ,17.9,0 
2002/11/1,23:00,,1 ,21.2,0 ,59.8,0 ,19.5,0 ,17.9,0 
2002/11/1,23:15,,1 ,20.9,0 ,60.4,0 ,19.4,0 ,18.1,0 
2002/11/1,23:30,,1 ,20.7,0 ,59.6,0 ,19.2,0 ,17.9,0 
2002/11/1,23:45,,1 ,20.7,0 ,61.1,0 ,19.1,0 ,17.8,0 
2002/11/2,0:00,,1 ,20.5,0 ,61.3,0 ,19,0 ,17.8,0 
2002/11/2,0:15,,1 ,20.4,0 ,61.2,0 ,19,0 ,17.8,0 
2002/11/2,0:30,,1 ,20.4,0 ,61.4,0 ,18.9,0 ,17.8,0 
2002/11/2,0:45,,1 ,20.3,0 ,62.4,0 ,18.8,0 ,17.8,0 
2002/11/2,1:00,,1 ,20.2,0 ,62,0 ,18.8,0 ,17.8,0 
2002/11/2,1:15,,1 ,20.2,0 ,62,0 ,18.7,0 ,17.8,0 
2002/11/2,1:30,,1 ,20.2,0 ,61.6,0 ,18.7,0 ,17.8,0 
2002/11/2,1:45,,1 ,20.2,0 ,61.3,0 ,18.6,0 ,17.8,0 
2002/11/2,2:00,,1 ,20.2,0 ,61.2,0 ,18.6,0 ,17.7,0 
2002/11/2,2:15,,1 ,20.2,0 ,60.8,0 ,18.6,0 ,17.7,0 
2002/11/2,2:30,,1 ,20.2,0 ,60.6,0 ,18.5,0 ,17.6,0 
2002/11/2,2:45,,1 ,20.2,0 ,60.3,0 ,18.5,0 ,17.6,0 
2002/11/2,3:00,,1 ,20.2,0 ,60.3,0 ,18.4,0 ,17.5,0 
2002/11/2,3:15,,1 ,20.3,0 ,60,0 ,18.4,0 ,17.5,0 
2002/11/2,3:30,,1 ,20.3,0 ,59.8,0 ,18.3,0 ,17.4,0 
2002/11/2,3:45,,1 ,20.3,0 ,59.7,0 ,18.3,0 ,17.4,0 
2002/11/2,4:00,,1 ,20.4,0 ,59.4,0 ,18.3,0 ,17.4,0 
2002/11/2,4:15,,1 ,20.5,0 ,59.3,0 ,18.3,0 ,17.3,0 
2002/11/2,4:30,,1 ,20.5,0 ,59,0 ,18.3,0 ,17.3,0 
2002/11/2,4:45,,1 ,20.7,0 ,58.5,0 ,18.3,0 ,17.4,0 
2002/11/2,5:00,,1 ,20.8,0 ,58.2,0 ,18.3,0 ,17.4,0 
2002/11/2,5:15,,1 ,20.8,0 ,58.2,0 ,18.3,0 ,17.3,0 
2002/11/2,5:30,,1 ,20.8,0 ,57.7,0 ,18.2,0 ,17.2,0 
2002/11/2,5:45,,1 ,20.9,0 ,57.4,0 ,18.3,0 ,17.2,0 
2002/11/2,6:00,,1 ,20.9,0 ,57.5,0 ,18.3,0 ,17.2,0 
2002/11/2,6:15,,1 ,21,0 ,57.6,0 ,18.3,0 ,17.1,0 
2002/11/2,6:30,,1 ,21,0 ,57.2,0 ,18.3,0 ,17.1,0 
2002/11/2,6:45,,1 ,21,0 ,56.9,0 ,18.3,0 ,17,0 
2002/11/2,7:00,,1 ,20.9,0 ,57.2,0 ,18.5,0 ,17.6,0 
2002/11/2,7:15,,1 ,21,0 ,56.9,0 ,18.6,0 ,17.7,0 
2002/11/2,7:30,,1 ,21.2,0 ,56.7,0 ,18.8,0 ,17.4,0 
2002/11/2,7:45,,1 ,21.1,0 ,56.6,0 ,18.8,0 ,17.4,0 
2002/11/2,8:00,,1 ,21.1,0 ,56.5,0 ,18.9,0 ,18,0 
2002/11/2,8:15,,1 ,21.2,0 ,56.5,0 ,19,0 ,18.2,0 
2002/11/2,8:30,,1 ,21.3,0 ,56.4,0 ,19,0 ,18.3,0 
2002/11/2,8:45,,1 ,21.3,0 ,56.5,0 ,19.1,0 ,18.4,0 
2002/11/2,9:00,,1 ,21.4,0 ,56.4,0 ,19.1,0 ,18.5,0 
2002/11/2,9:15,,1 ,21.5,0 ,56.3,0 ,19.2,0 ,18.6,0 
2002/11/2,9:30,,1 ,21.5,0 ,56.6,0 ,19.2,0 ,18.6,0 
2002/11/2,9:45,,1 ,21.6,0 ,56.5,0 ,19.3,0 ,18.7,0 
2002/11/2,10:00,,1 ,21.8,0 ,56.2,0 ,19.4,0 ,18.7,0 
2002/11/2,10:15,,1 ,21.9,0 ,55.7,0 ,19.5,0 ,18.8,0 
2002/11/2,10:30,,1 ,22.1,0 ,55.3,0 ,19.5,0 ,18.8,0 
2002/11/2,10:45,,1 ,22.4,0 ,54.1,0 ,19.6,0 ,18.9,0 
2002/11/2,11:00,,1 ,22.7,0 ,53.4,0 ,19.7,0 ,19,0 
2002/11/2,11:15,,1 ,23.3,0 ,51.3,0 ,19.8,0 ,19,0 
2002/11/2,11:30,,1 ,23.5,0 ,50.8,0 ,19.9,0 ,19.1,0 
2002/11/2,11:45,,1 ,23.8,0 ,49.9,0 ,20,0 ,19.2,0 
2002/11/2,12:00,,1 ,24,0 ,49.7,0 ,20.2,0 ,19.3,0 
2002/11/2,12:15,,1 ,24,0 ,49.8,0 ,20.3,0 ,19.4,0 
2002/11/2,12:30,,1 ,24.2,0 ,49.2,0 ,20.5,0 ,19.5,0 
2002/11/2,12:45,,1 ,24.4,0 ,48.8,0 ,20.7,0 ,19.6,0 
2002/11/2,13:00,,1 ,24.5,0 ,48.7,0 ,20.9,0 ,19.7,0 
2002/11/2,13:15,,1 ,24.7,0 ,48.6,0 ,21,0 ,19.8,0 
2002/11/2,13:30,,1 ,24.7,0 ,48.6,0 ,21.3,0 ,19.9,0 
2002/11/2,13:45,,1 ,24.7,0 ,48.8,0 ,21.6,0 ,20,0 
2002/11/2,14:00,,1 ,24.7,0 ,48.9,0 ,21.8,0 ,20.2,0 
2002/11/2,14:15,,1 ,24.8,0 ,49.4,0 ,22,0 ,20.3,0 
2002/11/2,14:30,,1 ,24.8,0 ,49.6,0 ,22.2,0 ,20.4,0 
2002/11/2,14:45,,1 ,24.8,0 ,49.8,0 ,22.4,0 ,20.5,0 
2002/11/2,15:00,,1 ,24.8,0 ,50.5,0 ,22.4,0 ,20.2,0 
2002/11/2,15:15,,1 ,24.5,0 ,51.4,0 ,22.4,0 ,19.9,0 
2002/11/2,15:30,,1 ,24.1,0 ,51.8,0 ,22.2,0 ,19.7,0 
2002/11/2,15:45,,1 ,23.9,0 ,52.7,0 ,22,0 ,19.5,0 
2002/11/2,16:00,,1 ,23.7,0 ,53.4,0 ,21.9,0 ,19.4,0 
2002/11/2,16:15,,1 ,23.5,0 ,53.6,0 ,21.7,0 ,19.3,0 
2002/11/2,16:30,,1 ,23.4,0 ,54.6,0 ,21.5,0 ,19.2,0 
2002/11/2,16:45,,1 ,23.3,0 ,54.2,0 ,21.4,0 ,19.1,0 
2002/11/2,17:00,,1 ,23.3,0 ,55.4,0 ,21.2,0 ,19,0 
2002/11/2,17:15,,1 ,23.3,0 ,55.9,0 ,21.1,0 ,19,0 
2002/11/2,17:30,,1 ,23.1,0 ,57.1,0 ,21.1,0 ,19,0 
2002/11/2,17:45,,1 ,23.1,0 ,56.8,0 ,21,0 ,19,0 
2002/11/2,18:00,,1 ,23.1,0 ,57.7,0 ,20.9,0 ,19,0 
2002/11/2,18:15,,1 ,23.1,0 ,57.6,0 ,20.9,0 ,18.9,0 
2002/11/2,18:30,,1 ,23,0 ,57.6,0 ,20.8,0 ,19,0 
2002/11/2,18:45,,1 ,22.8,0 ,59,0 ,20.8,0 ,18.9,0 
2002/11/2,19:00,,1 ,22.7,0 ,59.5,0 ,20.7,0 ,18.9,0 
2002/11/2,19:15,,1 ,22.6,0 ,60,0 ,20.7,0 ,18.8,0 
2002/11/2,19:30,,1 ,22.5,0 ,59.9,0 ,20.6,0 ,18.8,0 
2002/11/2,19:45,,1 ,22.5,0 ,59.6,0 ,20.6,0 ,18.8,0 
2002/11/2,20:00,,1 ,22.6,0 ,59.6,0 ,20.5,0 ,18.7,0 
2002/11/2,20:15,,1 ,22.5,0 ,59.7,0 ,20.5,0 ,18.7,0 
2002/11/2,20:30,,1 ,22.4,0 ,60,0 ,20.4,0 ,18.7,0 
2002/11/2,20:45,,1 ,22.3,0 ,59.3,0 ,20.4,0 ,18.6,0 
2002/11/2,21:00,,1 ,22.3,0 ,59.1,0 ,20.3,0 ,18.6,0 
2002/11/2,21:15,,1 ,22.2,0 ,60,0 ,20.3,0 ,18.6,0 
2002/11/2,21:30,,1 ,22.4,0 ,59.4,0 ,20.3,0 ,18.6,0 
2002/11/2,21:45,,1 ,22.4,0 ,58.7,0 ,20.3,0 ,18.6,0 
2002/11/2,22:00,,1 ,22.4,0 ,58.4,0 ,20.4,0 ,18.5,0 
2002/11/2,22:15,,1 ,22.5,0 ,57.9,0 ,20.4,0 ,18.6,0 
2002/11/2,22:30,,1 ,22.3,0 ,56.8,0 ,20.4,0 ,18.4,0 
2002/11/2,22:45,,1 ,22.2,0 ,57.6,0 ,20.4,0 ,18.2,0 
2002/11/2,23:00,,1 ,22,0 ,58.8,0 ,20.3,0 ,18.3,0 
2002/11/2,23:15,,1 ,22,0 ,58.6,0 ,20.1,0 ,18.4,0 
2002/11/2,23:30,,1 ,21.8,0 ,58.4,0 ,20,0 ,18.4,0 
2002/11/2,23:45,,1 ,21.8,0 ,58.4,0 ,19.9,0 ,18.4,0 
2002/11/3,0:00,,1 ,21.9,0 ,58.5,0 ,19.8,0 ,18.5,0 
2002/11/3,0:15,,1 ,21.8,0 ,58.9,0 ,19.7,0 ,18.5,0 
2002/11/3,0:30,,1 ,21.7,0 ,59,0 ,19.7,0 ,18.5,0 
2002/11/3,0:45,,1 ,21.6,0 ,59,0 ,19.6,0 ,18.4,0 
2002/11/3,1:00,,1 ,21.5,0 ,58.9,0 ,19.5,0 ,18.4,0 
2002/11/3,1:15,,1 ,21.5,0 ,59,0 ,19.5,0 ,18.4,0 
2002/11/3,1:30,,1 ,21.5,0 ,58.6,0 ,19.4,0 ,18.4,0 
2002/11/3,1:45,,1 ,21.5,0 ,58.5,0 ,19.4,0 ,18.3,0 
2002/11/3,2:00,,1 ,21.4,0 ,58.2,0 ,19.4,0 ,18.3,0 
2002/11/3,2:15,,1 ,21.5,0 ,58.2,0 ,19.3,0 ,18.3,0 
2002/11/3,2:30,,1 ,21.4,0 ,58.1,0 ,19.3,0 ,18.2,0 
2002/11/3,2:45,,1 ,21.4,0 ,57.9,0 ,19.3,0 ,18.2,0 
2002/11/3,3:00,,1 ,21.5,0 ,57.7,0 ,19.2,0 ,18.2,0 
2002/11/3,3:15,,1 ,21.5,0 ,57.6,0 ,19.2,0 ,18.1,0 
2002/11/3,3:30,,1 ,21.6,0 ,57.5,0 ,19.2,0 ,18.1,0 
2002/11/3,3:45,,1 ,21.6,0 ,57.2,0 ,19.2,0 ,18.1,0 
2002/11/3,4:00,,1 ,21.7,0 ,57,0 ,19.1,0 ,18.1,0 
2002/11/3,4:15,,1 ,21.7,0 ,56.8,0 ,19.1,0 ,18,0 
2002/11/3,4:30,,1 ,21.8,0 ,56.6,0 ,19.1,0 ,18,0 
2002/11/3,4:45,,1 ,21.8,0 ,56.5,0 ,19.1,0 ,18,0 
2002/11/3,5:00,,1 ,21.9,0 ,56.2,0 ,19.1,0 ,18,0 
2002/11/3,5:15,,1 ,22,0 ,56.1,0 ,19.1,0 ,18,0 
2002/11/3,5:30,,1 ,22.1,0 ,55.8,0 ,19.1,0 ,18,0 
2002/11/3,5:45,,1 ,22.1,0 ,55.7,0 ,19.1,0 ,17.9,0 
2002/11/3,6:00,,1 ,22.1,0 ,55.6,0 ,19.1,0 ,17.9,0 
2002/11/3,6:15,,1 ,22.1,0 ,55.5,0 ,19.1,0 ,17.9,0 
2002/11/3,6:30,,1 ,22.2,0 ,55.1,0 ,19.1,0 ,17.8,0 
2002/11/3,6:45,,1 ,22.1,0 ,55.2,0 ,19.1,0 ,17.8,0 
2002/11/3,7:00,,1 ,22.1,0 ,55.3,0 ,19.2,0 ,17.9,0 
2002/11/3,7:15,,1 ,22.2,0 ,55.9,0 ,19.5,0 ,17.9,0 
2002/11/3,7:30,,1 ,22.3,0 ,55.8,0 ,19.6,0 ,17.9,0 
2002/11/3,7:45,,1 ,22.4,0 ,56.4,0 ,19.6,0 ,18.6,0 
2002/11/3,8:00,,1 ,22.2,0 ,56.9,0 ,19.7,0 ,18.5,0 
2002/11/3,8:15,,1 ,22.2,0 ,56.9,0 ,19.8,0 ,18.4,0 
2002/11/3,8:30,,1 ,22.2,0 ,56.5,0 ,19.8,0 ,18.3,0 
2002/11/3,8:45,,1 ,22.2,0 ,56.5,0 ,19.8,0 ,18.2,0 
2002/11/3,9:00,,1 ,22.3,0 ,56.4,0 ,19.9,0 ,18.1,0 
2002/11/3,9:15,,1 ,22.2,0 ,56.3,0 ,19.9,0 ,18,0 
2002/11/3,9:30,,1 ,22.3,0 ,55.8,0 ,19.9,0 ,18,0 
2002/11/3,9:45,,1 ,22.5,0 ,55.3,0 ,20,0 ,17.9,0 
2002/11/3,10:00,,1 ,22.6,0 ,54.6,0 ,20.1,0 ,17.9,0 
2002/11/3,10:15,,1 ,22.8,0 ,54.4,0 ,20.2,0 ,17.8,0 
2002/11/3,10:30,,1 ,22.9,0 ,53.6,0 ,20.2,0 ,17.8,0 
2002/11/3,10:45,,1 ,23.1,0 ,52.7,0 ,20.3,0 ,17.8,0 
2002/11/3,11:00,,1 ,23.7,0 ,50.7,0 ,20.4,0 ,17.8,0 
2002/11/3,11:15,,1 ,23.7,0 ,50.4,0 ,20.5,0 ,17.8,0 
2002/11/3,11:30,,1 ,24,0 ,49.8,0 ,20.6,0 ,17.8,0 
2002/11/3,11:45,,1 ,24.5,0 ,48,0 ,20.8,0 ,17.8,0 
2002/11/3,12:00,,1 ,24.7,0 ,47.5,0 ,20.9,0 ,17.8,0 
2002/11/3,12:15,,1 ,24.8,0 ,47.3,0 ,21.1,0 ,17.9,0 
2002/11/3,12:30,,1 ,25.2,0 ,46.7,0 ,21.3,0 ,17.9,0 
2002/11/3,12:45,,1 ,25.4,0 ,46.8,0 ,21.6,0 ,17.9,0 
2002/11/3,13:00,,1 ,25.5,0 ,46.8,0 ,21.8,0 ,18,0 
2002/11/3,13:15,,1 ,25.3,0 ,46.2,0 ,22.1,0 ,18,0 
2002/11/3,13:30,,1 ,25.5,0 ,46,0 ,22.3,0 ,18.1,0 
2002/11/3,13:45,,1 ,25.5,0 ,46.5,0 ,22.4,0 ,18.1,0 
2002/11/3,14:00,,1 ,25.5,0 ,46.3,0 ,22.7,0 ,18.2,0 
2002/11/3,14:15,,1 ,25.7,0 ,46.2,0 ,22.9,0 ,18.3,0 
2002/11/3,14:30,,1 ,25.7,0 ,46.3,0 ,23.1,0 ,18.5,0 
2002/11/3,14:45,,1 ,25.7,0 ,46.3,0 ,23.3,0 ,18.6,0 
2002/11/3,15:00,,1 ,25.4,0 ,42.9,0 ,23.4,0 ,18.7,0 
2002/11/3,15:15,,1 ,24.8,0 ,40.4,0 ,23.4,0 ,18.8,0 
2002/11/3,15:30,,1 ,25,0 ,43,0 ,23.4,0 ,18.9,0 
2002/11/3,15:45,,1 ,24.5,0 ,45,0 ,23.1,0 ,19,0 
2002/11/3,16:00,,1 ,24.2,0 ,46.3,0 ,22.9,0 ,19,0 
2002/11/3,16:15,,1 ,24.1,0 ,47.1,0 ,22.7,0 ,19,0 
2002/11/3,16:30,,1 ,23.9,0 ,47.8,0 ,22.5,0 ,19.1,0 
2002/11/3,16:45,,1 ,23.8,0 ,48.3,0 ,22.4,0 ,19.1,0 
2002/11/3,17:00,,1 ,23.7,0 ,48.6,0 ,22.2,0 ,19.1,0 
2002/11/3,17:15,,1 ,23.6,0 ,49.1,0 ,22.1,0 ,19.1,0 
2002/11/3,17:30,,1 ,23.6,0 ,49.7,0 ,22,0 ,19.1,0 
2002/11/3,17:45,,1 ,23.5,0 ,50.3,0 ,21.9,0 ,19.1,0 
2002/11/3,18:00,,1 ,23.5,0 ,51.9,0 ,21.9,0 ,19.2,0 
2002/11/3,18:15,,1 ,23.4,0 ,52.9,0 ,21.8,0 ,19.1,0 
2002/11/3,18:30,,1 ,23.3,0 ,53.3,0 ,21.7,0 ,19,0 
2002/11/3,18:45,,1 ,23.2,0 ,53.6,0 ,21.7,0 ,18.9,0 
2002/11/3,19:00,,1 ,23.2,0 ,53.3,0 ,21.6,0 ,18.9,0 
2002/11/3,19:15,,1 ,23.1,0 ,53.5,0 ,21.5,0 ,18.9,0 
2002/11/3,19:30,,1 ,23.1,0 ,53.1,0 ,21.4,0 ,18.9,0 
2002/11/3,19:45,,1 ,23,0 ,54.3,0 ,21.3,0 ,18.9,0 
2002/11/3,20:00,,1 ,23,0 ,53.7,0 ,21.3,0 ,18.8,0 
2002/11/3,20:15,,1 ,22.9,0 ,54.1,0 ,21.2,0 ,18.7,0 
2002/11/3,20:30,,1 ,22.9,0 ,54.3,0 ,21,0 ,18.7,0 
2002/11/3,20:45,,1 ,22.7,0 ,54.5,0 ,21,0 ,18.7,0 
2002/11/3,21:00,,1 ,22.7,0 ,54.5,0 ,20.9,0 ,18.6,0 
2002/11/3,21:15,,1 ,23.3,0 ,52.7,0 ,20.9,0 ,18.6,0 
2002/11/3,21:30,,1 ,23.3,0 ,54.6,0 ,21.1,0 ,18.6,0 
2002/11/3,21:45,,1 ,23.4,0 ,54.2,0 ,21.2,0 ,18.6,0 
2002/11/3,22:00,,1 ,23.1,0 ,55.1,0 ,21.2,0 ,18.6,0 
2002/11/3,22:15,,1 ,23,0 ,55.5,0 ,21.1,0 ,18.6,0 
2002/11/3,22:30,,1 ,22.9,0 ,55.7,0 ,21.1,0 ,18.7,0 
2002/11/3,22:45,,1 ,22.9,0 ,55.6,0 ,21.1,0 ,18.6,0 
2002/11/3,23:00,,1 ,22.6,0 ,55.3,0 ,20.9,0 ,18.4,0 
2002/11/3,23:15,,1 ,22.5,0 ,56.3,0 ,20.8,0 ,18.4,0 
2002/11/3,23:30,,1 ,22.4,0 ,56.2,0 ,20.7,0 ,18.4,0 
2002/11/3,23:45,,1 ,22.3,0 ,56.8,0 ,20.5,0 ,18.4,0 
2002/11/4,0:00,,1 ,22.2,0 ,57,0 ,20.4,0 ,18.4,0 
2002/11/4,0:15,,1 ,22.1,0 ,57.1,0 ,20.3,0 ,18.4,0 
2002/11/4,0:30,,1 ,22,0 ,56.7,0 ,20.2,0 ,18.4,0 
2002/11/4,0:45,,1 ,22,0 ,56.3,0 ,20.3,0 ,18.3,0 
2002/11/4,1:00,,1 ,22,0 ,56.5,0 ,20.2,0 ,18.3,0 
2002/11/4,1:15,,1 ,21.9,0 ,56.6,0 ,20.1,0 ,18.3,0 
2002/11/4,1:30,,1 ,21.9,0 ,56.7,0 ,19.9,0 ,18.2,0 
2002/11/4,1:45,,1 ,21.8,0 ,56.6,0 ,19.8,0 ,18.2,0 
2002/11/4,2:00,,1 ,21.8,0 ,56.4,0 ,19.8,0 ,18.2,0 
2002/11/4,2:15,,1 ,21.8,0 ,56.5,0 ,19.7,0 ,18.2,0 
2002/11/4,2:30,,1 ,21.8,0 ,56.4,0 ,19.6,0 ,18.1,0 
2002/11/4,2:45,,1 ,21.8,0 ,56.1,0 ,19.6,0 ,18.1,0 
2002/11/4,3:00,,1 ,21.8,0 ,56.3,0 ,19.6,0 ,18,0 
2002/11/4,3:15,,1 ,21.8,0 ,56,0 ,19.5,0 ,18,0 
2002/11/4,3:30,,1 ,21.8,0 ,56,0 ,19.5,0 ,18,0 
2002/11/4,3:45,,1 ,21.8,0 ,55.7,0 ,19.4,0 ,17.9,0 
2002/11/4,4:00,,1 ,21.9,0 ,55.6,0 ,19.4,0 ,17.9,0 
2002/11/4,4:15,,1 ,21.9,0 ,55.4,0 ,19.4,0 ,17.9,0 
2002/11/4,4:30,,1 ,22,0 ,55.4,0 ,19.4,0 ,17.8,0 
2002/11/4,4:45,,1 ,22,0 ,55.3,0 ,19.3,0 ,17.8,0 
2002/11/4,5:00,,1 ,22,0 ,55.2,0 ,19.3,0 ,17.7,0 
2002/11/4,5:15,,1 ,22.1,0 ,55.1,0 ,19.3,0 ,17.7,0 
2002/11/4,5:30,,1 ,22.1,0 ,54.9,0 ,19.3,0 ,17.7,0 
2002/11/4,5:45,,1 ,22.1,0 ,54.7,0 ,19.2,0 ,17.6,0 
2002/11/4,6:00,,1 ,22.2,0 ,54.5,0 ,19.2,0 ,17.6,0 
2002/11/4,6:15,,1 ,22.2,0 ,54.5,0 ,19.2,0 ,17.5,0 
2002/11/4,6:30,,1 ,22.2,0 ,54.3,0 ,19.2,0 ,17.5,0 
2002/11/4,6:45,,1 ,22.2,0 ,54.2,0 ,19.2,0 ,17.5,0 
2002/11/4,7:00,,1 ,22.2,0 ,54,0 ,19.2,0 ,17.5,0 
2002/11/4,7:15,,1 ,22.3,0 ,54.2,0 ,19.2,0 ,17.6,0 
2002/11/4,7:30,,1 ,22.3,0 ,54.6,0 ,19.4,0 ,17.6,0 
2002/11/4,7:45,,1 ,22.3,0 ,54.7,0 ,19.6,0 ,17.5,0 
2002/11/4,8:00,,1 ,22.3,0 ,55,0 ,19.7,0 ,17.7,0 
2002/11/4,8:15,,1 ,22.4,0 ,55.1,0 ,19.8,0 ,17.7,0 
2002/11/4,8:30,,1 ,22.5,0 ,54.8,0 ,19.8,0 ,17.7,0 
2002/11/4,8:45,,1 ,22.5,0 ,55.1,0 ,19.9,0 ,17.7,0 
2002/11/4,9:00,,1 ,22.5,0 ,54.4,0 ,19.9,0 ,17.5,0 
2002/11/4,9:15,,1 ,22.3,0 ,54.2,0 ,20,0 ,17.3,0 
2002/11/4,9:30,,1 ,22.3,0 ,53.4,0 ,19.9,0 ,17.2,0 
2002/11/4,9:45,,1 ,22.4,0 ,53,0 ,20,0 ,17.1,0 
2002/11/4,10:00,,1 ,22.5,0 ,52.5,0 ,20,0 ,17.1,0 
2002/11/4,10:15,,1 ,22.3,0 ,52.2,0 ,20,0 ,17.1,0 
2002/11/4,10:30,,1 ,22.3,0 ,52,0 ,20,0 ,17,0 
2002/11/4,10:45,,1 ,22.4,0 ,51.4,0 ,20.1,0 ,17,0 
2002/11/4,11:00,,1 ,22.6,0 ,51.1,0 ,20.2,0 ,17,0 
2002/11/4,11:15,,1 ,22.6,0 ,50.5,0 ,20.2,0 ,17.1,0 
2002/11/4,11:30,,1 ,22.7,0 ,50,0 ,20.3,0 ,17.1,0 
2002/11/4,11:45,,1 ,22.7,0 ,49.8,0 ,20.3,0 ,17.1,0 
2002/11/4,12:00,,1 ,22.5,0 ,50.3,0 ,20.3,0 ,17.1,0 
2002/11/4,12:15,,1 ,22.4,0 ,49.2,0 ,20.4,0 ,17.2,0 
2002/11/4,12:30,,1 ,22.5,0 ,48.8,0 ,20.4,0 ,17.2,0 
2002/11/4,12:45,,1 ,22.9,0 ,47.4,0 ,20.5,0 ,17.2,0 
2002/11/4,13:00,,1 ,23.2,0 ,47.4,0 ,20.7,0 ,17.3,0 
2002/11/4,13:15,,1 ,23.2,0 ,47.4,0 ,20.9,0 ,17.3,0 
2002/11/4,13:30,,1 ,23.2,0 ,47.8,0 ,20.9,0 ,17.3,0 
2002/11/4,13:45,,1 ,23.5,0 ,46.1,0 ,21.1,0 ,17.4,0 
2002/11/4,14:00,,1 ,23.7,0 ,45.8,0 ,21.4,0 ,17.4,0 
2002/11/4,14:15,,1 ,23.8,0 ,46,0 ,21.6,0 ,17.5,0 
2002/11/4,14:30,,1 ,23.9,0 ,45.2,0 ,21.8,0 ,17.6,0 
2002/11/4,14:45,,1 ,23.8,0 ,45.4,0 ,21.9,0 ,17.7,0 
2002/11/4,15:00,,1 ,23.8,0 ,45.9,0 ,22,0 ,17.8,0 
2002/11/4,15:15,,1 ,23.6,0 ,45.7,0 ,21.9,0 ,17.8,0 
2002/11/4,15:30,,1 ,23.6,0 ,45.7,0 ,21.9,0 ,17.8,0 
2002/11/4,15:45,,1 ,23.3,0 ,46.5,0 ,21.8,0 ,17.8,0 
2002/11/4,16:00,,1 ,23,0 ,47.2,0 ,21.6,0 ,17.8,0 
2002/11/4,16:15,,1 ,22.9,0 ,45.9,0 ,21.4,0 ,17.8,0 
2002/11/4,16:30,,1 ,22.7,0 ,47.1,0 ,21.3,0 ,18.7,0 
2002/11/4,16:45,,1 ,22.6,0 ,47.9,0 ,21.1,0 ,19.2,0 
2002/11/4,17:00,,1 ,22.5,0 ,48.4,0 ,21,0 ,19.4,0 
2002/11/4,17:15,,1 ,22.6,0 ,48.9,0 ,21,0 ,19.6,0 
2002/11/4,17:30,,1 ,22.5,0 ,49.4,0 ,20.9,0 ,19.5,0 
2002/11/4,17:45,,1 ,22.5,0 ,49.8,0 ,20.8,0 ,19.5,0 
2002/11/4,18:00,,1 ,22.4,0 ,50,0 ,20.7,0 ,19.5,0 
2002/11/4,18:15,,1 ,22.4,0 ,52.1,0 ,20.7,0 ,19.5,0 
2002/11/4,18:30,,1 ,22.4,0 ,52.4,0 ,20.6,0 ,19.5,0 
2002/11/4,18:45,,1 ,22.4,0 ,52.5,0 ,20.6,0 ,19.5,0 
2002/11/4,19:00,,1 ,22.4,0 ,52.5,0 ,20.6,0 ,19.6,0 
2002/11/4,19:15,,1 ,22.3,0 ,51.4,0 ,20.6,0 ,19.6,0 
2002/11/4,19:30,,1 ,22.2,0 ,52.1,0 ,20.5,0 ,19.4,0 
2002/11/4,19:45,,1 ,22.2,0 ,52.6,0 ,20.5,0 ,19.2,0 
2002/11/4,20:00,,1 ,22.1,0 ,53,0 ,20.5,0 ,19.1,0 
2002/11/4,20:15,,1 ,22.1,0 ,53.2,0 ,20.5,0 ,19.1,0 
2002/11/4,20:30,,1 ,22.1,0 ,53.4,0 ,20.4,0 ,19,0 
2002/11/4,20:45,,1 ,22.1,0 ,53.8,0 ,20.4,0 ,18.9,0 
2002/11/4,21:00,,1 ,22.2,0 ,53.5,0 ,20.4,0 ,19,0 
2002/11/4,21:15,,1 ,22.2,0 ,54.6,0 ,20.4,0 ,19,0 
2002/11/4,21:30,,1 ,22.1,0 ,54.6,0 ,20.3,0 ,18.9,0 
2002/11/4,21:45,,1 ,22.1,0 ,54.5,0 ,20.3,0 ,19.1,0 
2002/11/4,22:00,,1 ,22.1,0 ,54.5,0 ,20.2,0 ,19,0 
2002/11/4,22:15,,1 ,21.9,0 ,54.7,0 ,20.2,0 ,18.9,0 
2002/11/4,22:30,,1 ,21.9,0 ,55.2,0 ,20.2,0 ,18.9,0 
2002/11/4,22:45,,1 ,21.9,0 ,55.3,0 ,20.2,0 ,18.8,0 
2002/11/4,23:00,,1 ,21.9,0 ,55.2,0 ,20.1,0 ,18.8,0 
2002/11/4,23:15,,1 ,21.8,0 ,55.2,0 ,20.1,0 ,18.8,0 
2002/11/4,23:30,,1 ,21.8,0 ,55.2,0 ,20.1,0 ,18.7,0 
2002/11/4,23:45,,1 ,21.8,0 ,55.3,0 ,20,0 ,18.7,0 
2002/11/5,0:00,,1 ,21.7,0 ,55.2,0 ,19.8,0 ,18.7,0 
2002/11/5,0:15,,1 ,21.7,0 ,56,0 ,19.7,0 ,18.7,0 
2002/11/5,0:30,,1 ,21.5,0 ,57.7,0 ,19.6,0 ,18.6,0 
2002/11/5,0:45,,1 ,21.5,0 ,57.8,0 ,19.5,0 ,18.6,0 
2002/11/5,1:00,,1 ,21.5,0 ,57.5,0 ,19.5,0 ,18.6,0 
2002/11/5,1:15,,1 ,21.5,0 ,57.2,0 ,19.4,0 ,18.6,0 
2002/11/5,1:30,,1 ,21.4,0 ,57.1,0 ,19.3,0 ,18.5,0 
2002/11/5,1:45,,1 ,21.4,0 ,57.2,0 ,19.3,0 ,18.5,0 
2002/11/5,2:00,,1 ,21.3,0 ,57.2,0 ,19.2,0 ,18.5,0 
2002/11/5,2:15,,1 ,21.3,0 ,57.1,0 ,19.2,0 ,18.4,0 
2002/11/5,2:30,,1 ,21.3,0 ,56.9,0 ,19.2,0 ,18.4,0 
2002/11/5,2:45,,1 ,21.3,0 ,56.7,0 ,19.1,0 ,18.3,0 
2002/11/5,3:00,,1 ,21.3,0 ,56.6,0 ,19.1,0 ,18.3,0 
2002/11/5,3:15,,1 ,21.3,0 ,56.5,0 ,19,0 ,18.3,0 
2002/11/5,3:30,,1 ,21.4,0 ,56.3,0 ,19,0 ,18.2,0 
2002/11/5,3:45,,1 ,21.4,0 ,56.2,0 ,19,0 ,18.2,0 
2002/11/5,4:00,,1 ,21.5,0 ,55.9,0 ,19,0 ,18.2,0 
2002/11/5,4:15,,1 ,21.5,0 ,55.8,0 ,19,0 ,18.2,0 
2002/11/5,4:30,,1 ,21.6,0 ,55.7,0 ,19,0 ,18.1,0 
2002/11/5,4:45,,1 ,21.6,0 ,55.5,0 ,19,0 ,18.1,0 
2002/11/5,5:00,,1 ,21.7,0 ,55.4,0 ,19,0 ,18.1,0 
2002/11/5,5:15,,1 ,21.8,0 ,55,0 ,18.9,0 ,18.1,0 
2002/11/5,5:30,,1 ,21.8,0 ,55,0 ,18.9,0 ,18,0 
2002/11/5,5:45,,1 ,21.8,0 ,54.8,0 ,18.9,0 ,18,0 
2002/11/5,6:00,,1 ,22,0 ,54.8,0 ,18.9,0 ,18,0 
2002/11/5,6:15,,1 ,22,0 ,55.4,0 ,19,0 ,18,0 
2002/11/5,6:30,,1 ,22,0 ,55.4,0 ,19,0 ,18,0 
2002/11/5,6:45,,1 ,22.1,0 ,55,0 ,19,0 ,18,0 
2002/11/5,7:00,,1 ,22,0 ,55.2,0 ,19,0 ,18,0 
2002/11/5,7:15,,1 ,22,0 ,55.2,0 ,19,0 ,18,0 
2002/11/5,7:30,,1 ,22.1,0 ,54.9,0 ,19,0 ,18,0 
2002/11/5,7:45,,1 ,22.1,0 ,54.9,0 ,19,0 ,18,0 
2002/11/5,8:00,,1 ,22,0 ,55.5,0 ,19.2,0 ,18.1,0 
2002/11/5,8:15,,1 ,22,0 ,55.3,0 ,19.4,0 ,18,0 
2002/11/5,8:30,,1 ,22.1,0 ,55,0 ,19.5,0 ,18,0 
2002/11/5,8:45,,1 ,22.1,0 ,54.7,0 ,19.6,0 ,18,0 
2002/11/5,9:00,,1 ,22.2,0 ,54.8,0 ,19.7,0 ,18,0 
2002/11/5,9:15,,1 ,22,0 ,55.2,0 ,19.7,0 ,18,0 
2002/11/5,9:30,,1 ,22,0 ,54.9,0 ,19.7,0 ,18,0 
2002/11/5,9:45,,1 ,21.9,0 ,54.6,0 ,19.7,0 ,18.1,0 
2002/11/5,10:00,,1 ,21.9,0 ,54.7,0 ,19.8,0 ,18.3,0 
2002/11/5,10:15,,1 ,21.7,0 ,54.8,0 ,19.7,0 ,18.6,0 
2002/11/5,10:30,,1 ,21.8,0 ,54.7,0 ,19.7,0 ,18.8,0 
2002/11/5,10:45,,1 ,21.9,0 ,54.4,0 ,19.8,0 ,19,0 
2002/11/5,11:00,,1 ,21.7,0 ,54.1,0 ,19.7,0 ,19,0 
2002/11/5,11:15,,1 ,21.8,0 ,53.8,0 ,19.7,0 ,19,0 
2002/11/5,11:30,,1 ,22,0 ,53.3,0 ,19.8,0 ,19.1,0 
2002/11/5,11:45,,1 ,22.1,0 ,53.9,0 ,19.8,0 ,18.9,0 
2002/11/5,12:00,,1 ,23,0 ,50.8,0 ,19.9,0 ,18.7,0 
2002/11/5,12:15,,1 ,23.3,0 ,49.5,0 ,20,0 ,18.7,0 
2002/11/5,12:30,,1 ,24,0 ,48.4,0 ,20.3,0 ,18.6,0 
2002/11/5,12:45,,1 ,24.3,0 ,47.8,0 ,20.6,0 ,18.6,0 
2002/11/5,13:00,,1 ,24,0 ,48.8,0 ,20.7,0 ,18.6,0 
2002/11/5,13:15,,1 ,23.2,0 ,50.6,0 ,20.6,0 ,18.6,0 
2002/11/5,13:30,,1 ,23,0 ,51.6,0 ,20.6,0 ,19.1,0 
2002/11/5,13:45,,1 ,23.1,0 ,52,0 ,20.7,0 ,19.4,0 
2002/11/5,14:00,,1 ,23.5,0 ,52.2,0 ,20.9,0 ,19.3,0 
2002/11/5,14:15,,1 ,23.9,0 ,51.2,0 ,21.2,0 ,19.2,0 
2002/11/5,14:30,,1 ,24,0 ,50.7,0 ,21.5,0 ,19.1,0 
2002/11/5,14:45,,1 ,23.7,0 ,51.8,0 ,21.6,0 ,19.1,0 
2002/11/5,15:00,,1 ,23.5,0 ,52.1,0 ,21.5,0 ,19.1,0 
2002/11/5,15:15,,1 ,23.5,0 ,51.7,0 ,21.6,0 ,19,0 
2002/11/5,15:30,,1 ,23.6,0 ,51.4,0 ,21.6,0 ,19,0 
2002/11/5,15:45,,1 ,23.3,0 ,52.1,0 ,21.5,0 ,19,0 
2002/11/5,16:00,,1 ,23,0 ,52.5,0 ,21.3,0 ,19,0 
2002/11/5,16:15,,1 ,22.8,0 ,52.8,0 ,21.1,0 ,19,0 
2002/11/5,16:30,,1 ,22.6,0 ,53,0 ,21,0 ,19,0 
2002/11/5,16:45,,1 ,22.5,0 ,53.2,0 ,20.9,0 ,18.9,0 
2002/11/5,17:00,,1 ,22.4,0 ,53.5,0 ,20.7,0 ,18.9,0 
2002/11/5,17:15,,1 ,22.3,0 ,52.6,0 ,20.6,0 ,18.9,0 
2002/11/5,17:30,,1 ,22.2,0 ,53,0 ,20.6,0 ,18.9,0 
2002/11/5,17:45,,1 ,22.1,0 ,53.5,0 ,20.5,0 ,18.9,0 
2002/11/5,18:00,,1 ,22,0 ,53.9,0 ,20.4,0 ,18.9,0 
2002/11/5,18:15,,1 ,22,0 ,54.6,0 ,20.3,0 ,18.9,0 
2002/11/5,18:30,,1 ,22,0 ,54.8,0 ,20.3,0 ,18.9,0 
2002/11/5,18:45,,1 ,21.9,0 ,54.3,0 ,20.2,0 ,18.9,0 
2002/11/5,19:00,,1 ,22,0 ,54.8,0 ,20.2,0 ,18.9,0 
2002/11/5,19:15,,1 ,22,0 ,55.1,0 ,20.3,0 ,18.9,0 